sat.trackr.live / text

‹ back to catalog

STARLINK-34871

NORAD 65217 · 2025-176V

PAYLOAD ACTIVE UNKNOWN

§ Identity

Operator
Country
US
Launch date
2025-08-14
Launch site
AFETR
Launch vehicle
Mass (kg)
RCS (m²)

Purposes: comms

External: N2YO · Heavens-Above · Gunter

§ Orbital elements

Epoch: 2026-05-25T01:11:33.553824Z

Period
93.85 min
Inclination
53.1586°
Eccentricity
0.0000986
Mean motion
15.34409352 rev/d
Perigee alt
462.0 km
Apogee alt
463.3 km
Semi-major
6,840.8 km
B*
5.2148e-4
RAAN
157.1841°
Arg perigee
79.0779°
Mean anomaly
281.0334°
Rev number
4,482

§ Raw data

STARLINK-348711 65217U 25176V   26145.04969391  .00017289  00000+0  52148-3 0  99902 65217  53.1586 157.1841 0000986  79.0779 281.0334 15.34409352 44825

JSON: /api/v1/satellites/65217 · /tle

For live sub-satellite position, see the globe view (requires WebGL).

§ Visibility from observer

Set your observer location to see the next 7 days of passes ≥ 10°. The values pass through the URL so the page stays shareable.

No JS? Fill the form by hand. The geolocation button needs JavaScript.